Weather History for KLJF - May, 2013

Change the Weather History Date:

Thursday, May 30, 2013

  Actual Average Record
Temperature  
Mean Temperature 68 °F -  
Max Temperature 73 °F 73 °F 89 °F (1988)
Min Temperature 64 °F 51 °F 39 °F (1966)
Cooling Degree Days 4    
Growing Degree Days 18 (Base 50)    
Moisture  
Dew Point 65 °F    
Average Humidity 89    
Maximum Humidity 100    
Minimum Humidity 69    
Precipitation  
Precipitation 0.00 in - - ()
Sea Level Pressure  
Sea Level Pressure 29.55 in    
Wind  
Wind Speed 10 mph (SE)    
Max Wind Speed 17 mph    
Max Gust Speed 24 mph    
Visibility 10 miles    
Events Rain , Thunderstorm    
Averages and records for this station are not official NWS values.
T = Trace of Precipitation, MM = Missing Value Source: NWS Daily Summary

Daily Weather History Graph

Daily Weather History Graph

Search for Another Location

Airport or City:

Trip Planner

Search our weather history database for the weather conditions in past years. The results will help you decide how hot, cold, wet, or windy it might be!

Date:

Astronomy

May. 30, 2013 Rise Set
Actual Time 5:35 AM CDT 8:56 PM CDT
Civil Twilight 4:59 AM CDT 9:32 PM CDT
Nautical Twilight 4:11 AM CDT 10:20 PM CDT
Astronomical Twilight 3:12 AM CDT 11:20 PM CDT
Moon 12:48 AM CDT (5/30) 11:55 AM CDT (5/30)
Length of Visible Light 16h 33m
Length of Day
15h 21m
Waning Gibbous, 62% of the Moon is Illuminated
May 30
Waning Gibbous
May 31
Last Quarter
Jun 8
New
Jun 16
First Quarter
Jun 23
Full

Hourly Weather History & Observations

Time (CDT) Temp. Dew Point Humidity Pressure Visibility Wind Dir Wind Speed Gust Speed Precip Events Conditions
12:12 AM 66.2 °F 64.4 °F 94% 29.64 in 10.0 mi SE 9.2 mph 17.3 mph N/A   Mostly Cloudy
12:33 AM 66.2 °F 64.4 °F 94% 29.63 in 10.0 mi SE 11.5 mph 18.4 mph N/A Rain Light Rain
12:53 AM 66.2 °F 64.4 °F 94% 29.62 in 10.0 mi SE 15.0 mph 18.4 mph N/A Rain Rain
1:12 AM 66.2 °F 64.4 °F 94% 29.62 in 10.0 mi ESE 16.1 mph - N/A Rain Rain
1:33 AM 64.4 °F 64.4 °F 100% 29.61 in 10.0 mi ESE 16.1 mph - N/A   Overcast
1:53 AM 66.2 °F 64.4 °F 94% 29.60 in 10.0 mi SE 13.8 mph - N/A   Overcast
2:12 AM 64.4 °F 64.4 °F 100% 29.60 in 10.0 mi SE 10.4 mph - N/A   Mostly Cloudy
2:33 AM 66.2 °F 64.4 °F 94% 29.59 in 10.0 mi SE 10.4 mph 18.4 mph N/A   Mostly Cloudy
2:53 AM 66.2 °F 64.4 °F 94% 29.58 in 10.0 mi SE 15.0 mph 20.7 mph N/A   Mostly Cloudy
3:12 AM 64.4 °F 64.4 °F 100% 29.56 in 10.0 mi SE 12.7 mph 23.0 mph N/A   Scattered Clouds
3:33 AM 64.4 °F 64.4 °F 100% 29.57 in 10.0 mi SE 11.5 mph - N/A   Mostly Cloudy
3:53 AM 64.4 °F 64.4 °F 100% 29.56 in 10.0 mi SE 10.4 mph - N/A   Scattered Clouds
4:13 AM 64.4 °F 62.6 °F 94% 29.55 in 10.0 mi ESE 12.7 mph - N/A   Clear
4:33 AM 64.4 °F 62.6 °F 94% 29.55 in 10.0 mi ESE 12.7 mph - N/A   Scattered Clouds
4:53 AM 64.4 °F 64.4 °F 100% 29.54 in 10.0 mi ESE 10.4 mph - N/A   Mostly Cloudy
5:13 AM 66.2 °F 64.4 °F 94% 29.54 in 10.0 mi ESE 12.7 mph - N/A   Overcast
5:33 AM 66.2 °F 66.2 °F 100% 29.55 in 10.0 mi SE 11.5 mph - N/A   Overcast
5:52 AM 68.0 °F 66.2 °F 94% 29.54 in 10.0 mi SE 12.7 mph 18.4 mph N/A   Mostly Cloudy
6:13 AM 68.0 °F 66.2 °F 94% 29.53 in 7.0 mi SE 10.4 mph 17.3 mph N/A Rain Light Rain
6:33 AM 66.2 °F 66.2 °F 100% 29.52 in 10.0 mi SE 6.9 mph - N/A   Scattered Clouds
6:52 AM 68.0 °F 66.2 °F 94% 29.53 in 10.0 mi SSE 5.8 mph - N/A   Mostly Cloudy
7:13 AM 68.0 °F 66.2 °F 94% 29.55 in 10.0 mi SSE 4.6 mph - N/A   Overcast
7:33 AM 68.0 °F 66.2 °F 94% 29.56 in 10.0 mi SSE 5.8 mph - N/A   Overcast
7:52 AM 68.0 °F 66.2 °F 94% 29.56 in 10.0 mi South 4.6 mph - N/A Rain Light Rain
8:13 AM 68.0 °F 66.2 °F 94% 29.55 in 10.0 mi SSE 5.8 mph - N/A   Overcast
8:33 AM 68.0 °F 66.2 °F 94% 29.55 in 10.0 mi SSE 5.8 mph - N/A   Overcast
8:53 AM 68.0 °F 66.2 °F 94% 29.56 in 4.0 mi South 4.6 mph - N/A Rain Rain
9:13 AM 66.2 °F 66.2 °F 100% 29.57 in 3.0 mi SSE 8.1 mph - N/A Rain Light Rain
9:32 AM 66.2 °F 66.2 °F 100% 29.56 in 7.0 mi SSE 6.9 mph - N/A   Light Drizzle
9:53 AM 68.0 °F 68.0 °F 100% 29.56 in 10.0 mi SSE 9.2 mph - N/A   Mostly Cloudy
10:13 AM 69.8 °F 66.2 °F 88% 29.57 in 10.0 mi SSE 8.1 mph 18.4 mph N/A   Mostly Cloudy
10:32 AM 69.8 °F 66.2 °F 88% 29.56 in 10.0 mi SSE 9.2 mph 18.4 mph N/A   Mostly Cloudy
10:53 AM 69.8 °F 66.2 °F 88% 29.56 in 10.0 mi SSE 9.2 mph 18.4 mph N/A   Mostly Cloudy
11:13 AM 71.6 °F 66.2 °F 83% 29.56 in 10.0 mi SSE 11.5 mph 18.4 mph N/A   Mostly Cloudy
11:32 AM 71.6 °F 64.4 °F 78% 29.56 in 10.0 mi SSE 8.1 mph 20.7 mph N/A   Scattered Clouds
11:53 AM 71.6 °F 62.6 °F 73% 29.56 in 10.0 mi SSE 8.1 mph - N/A   Scattered Clouds
12:13 PM 71.6 °F 62.6 °F 73% 29.57 in 10.0 mi SSE 9.2 mph - N/A   Scattered Clouds
12:32 PM 69.8 °F 62.6 °F 78% 29.57 in 10.0 mi SSE 9.2 mph - N/A   Scattered Clouds
12:53 PM 69.8 °F 62.6 °F 78% 29.57 in 10.0 mi SSE 8.1 mph - N/A   Scattered Clouds
1:13 PM 69.8 °F 64.4 °F 83% 29.57 in 10.0 mi SSE 9.2 mph 16.1 mph N/A   Scattered Clouds
1:32 PM 71.6 °F 64.4 °F 78% 29.57 in 10.0 mi SSE 11.5 mph 19.6 mph N/A   Scattered Clouds
1:53 PM 71.6 °F 64.4 °F 78% 29.56 in 10.0 mi SE 10.4 mph 18.4 mph N/A   Mostly Cloudy
2:12 PM 73.4 °F 64.4 °F 73% 29.56 in 10.0 mi SE 16.1 mph 23.0 mph N/A   Scattered Clouds
2:33 PM 73.4 °F 62.6 °F 69% 29.55 in 10.0 mi SE 16.1 mph 24.2 mph N/A   Mostly Cloudy
2:53 PM 73.4 °F 64.4 °F 73% 29.55 in 10.0 mi SE 17.3 mph 23.0 mph N/A   Mostly Cloudy
3:13 PM 73.4 °F 62.6 °F 69% 29.54 in 10.0 mi SE 13.8 mph 18.4 mph N/A   Mostly Cloudy
3:33 PM 73.4 °F 62.6 °F 69% 29.53 in 10.0 mi SSE 13.8 mph 20.7 mph N/A   Mostly Cloudy
3:53 PM 73.4 °F 62.6 °F 69% 29.54 in 10.0 mi SSE 11.5 mph 18.4 mph N/A   Scattered Clouds
4:13 PM 73.4 °F 62.6 °F 69% 29.53 in 10.0 mi SSE 13.8 mph 18.4 mph N/A   Mostly Cloudy
4:32 PM 73.4 °F 62.6 °F 69% 29.53 in 10.0 mi SSE 10.4 mph 19.6 mph N/A   Mostly Cloudy
4:53 PM 71.6 °F 62.6 °F 73% 29.52 in 10.0 mi SSE 5.8 mph - N/A   Overcast
5:13 PM 71.6 °F 62.6 °F 73% 29.52 in 10.0 mi SSE 5.8 mph - N/A Rain Rain
5:33 PM 64.4 °F 62.6 °F 94% 29.54 in 1.5 mi SSE 9.2 mph - N/A Rain Heavy Rain
5:53 PM 64.4 °F 64.4 °F 100% 29.53 in 10.0 mi SE 5.8 mph - N/A   Mostly Cloudy
6:13 PM 66.2 °F 66.2 °F 100% 29.53 in 10.0 mi SSE 5.8 mph - N/A   Scattered Clouds
6:33 PM 68.0 °F 66.2 °F 94% 29.51 in 10.0 mi SE 5.8 mph - N/A   Scattered Clouds
6:53 PM 68.0 °F 66.2 °F 94% 29.51 in 10.0 mi SSE 5.8 mph - N/A   Scattered Clouds
7:13 PM 69.8 °F 66.2 °F 88% 29.50 in 10.0 mi SE 5.8 mph - N/A   Clear
7:33 PM 68.0 °F 66.2 °F 94% 29.50 in 10.0 mi SSE 6.9 mph - N/A   Clear
7:53 PM 69.8 °F 64.4 °F 83% 29.51 in 10.0 mi SE 8.1 mph - N/A   Scattered Clouds
8:13 PM 69.8 °F 64.4 °F 83% 29.52 in 10.0 mi SE 8.1 mph - N/A   Scattered Clouds
8:32 PM 68.0 °F 64.4 °F 88% 29.52 in 10.0 mi SSE 5.8 mph - N/A   Scattered Clouds
8:53 PM 68.0 °F 64.4 °F 88% 29.52 in 10.0 mi SSE 5.8 mph - N/A Thunderstorm Scattered Clouds
9:13 PM 68.0 °F 64.4 °F 88% 29.52 in 10.0 mi SE 4.6 mph - N/A   Mostly Cloudy
9:32 PM 66.2 °F 64.4 °F 94% 29.51 in 10.0 mi SSE 3.5 mph - N/A   Light Drizzle
9:53 PM 66.2 °F 64.4 °F 94% 29.51 in 10.0 mi SE 4.6 mph - N/A   Scattered Clouds
10:13 PM 66.2 °F 64.4 °F 94% 29.52 in 10.0 mi SSE 4.6 mph - N/A   Scattered Clouds
10:32 PM 66.2 °F 64.4 °F 94% 29.52 in 10.0 mi SSE 6.9 mph - N/A   Scattered Clouds
10:53 PM 66.2 °F 64.4 °F 94% 29.52 in 10.0 mi SSE 8.1 mph - N/A   Mostly Cloudy
11:13 PM 66.2 °F 64.4 °F 94% 29.52 in 10.0 mi SE 9.2 mph - N/A   Scattered Clouds
11:32 PM 66.2 °F 64.4 °F 94% 29.52 in 10.0 mi SSE 6.9 mph - N/A   Scattered Clouds
11:53 PM 64.4 °F 64.4 °F 100% 29.51 in 10.0 mi SSE 9.2 mph - N/A Thunderstorm Thunderstorm